Gatesville, TX

9:42 AM CST on December 08, 2019 (GMT -0600)
Gatesville

Weather History for KGOP - November, 2019

Change the Weather History Date:

Wednesday, November 13, 2019

  Actual Average (WUND) Record (WUND)
Temperature  
Mean Temperature 31 °F -  
Max Temperature 41 °F - - (-1)
Min Temperature 21 °F - - (-1)
Degree Days  
Heating Degree Days 34    
Moisture  
Dew Point 22 °F    
Average Humidity 64    
Maximum Humidity 80    
Minimum Humidity 36    
Precipitation  
Precipitation 0.00 in - - ()
Sea Level Pressure  
Sea Level Pressure 30.23 in    
Wind  
Wind Speed 3 mph ()    
Max Wind Speed 13 mph    
Max Gust Speed 15 mph    
Visibility 10.0 miles    
Events      
Averages and records for this station are not official NWS values.
T = Trace of Precipitation, MM = Missing Value Source: Averaged Metar Reports

Daily Weather History Graph

Daily Weather History Graph

Search for Another Location

Airport or City:

Astronomy

Nov. 13, 2019 Rise Set
Actual Time 6:56 AM CST 5:33 PM CST
Civil Twilight 6:31 AM CST 5:59 PM CST
Nautical Twilight 6:02 AM CST 6:28 PM CST
Astronomical Twilight 5:33 AM CST 6:57 PM CST
Moon 6:40 PM CST (11/13) 7:50 AM CST (11/13)
Length of Visible Light 11h 27m
Length of Day
10h 36m
Full, 99% of the Moon is Illuminated
Nov 13
Full
Nov 19
Last Quarter
Nov 26
New
Dec 4
First Quarter
Dec 11
Full

Hourly Weather History & Observations

Time (CST) Temp. Windchill Dew Point Humidity Pressure Visibility Wind Dir Wind Speed Gust Speed Precip Events Conditions
12:15 AM 24.8 °F - 15.8 °F 69% 30.41 in 10.0 mi Calm Calm - N/A   Clear
12:35 AM 24.8 °F - 15.8 °F 69% 30.40 in 10.0 mi Calm Calm - N/A   Clear
12:55 AM 23.0 °F - 15.8 °F 74% 30.40 in 10.0 mi Calm Calm - N/A   Clear
1:15 AM 23.0 °F - 15.8 °F 74% 30.39 in 10.0 mi Calm Calm - N/A   Clear
1:35 AM 23.0 °F - 15.8 °F 74% 30.38 in 10.0 mi Calm Calm - N/A   Clear
1:55 AM 23.0 °F - 15.8 °F 74% 30.39 in 10.0 mi Calm Calm - N/A   Clear
2:15 AM 23.0 °F - 15.8 °F 74% 30.38 in 10.0 mi Calm Calm - N/A   Clear
2:35 AM 23.0 °F - 15.8 °F 74% 30.37 in 10.0 mi Calm Calm - N/A   Clear
2:55 AM 21.2 °F 16.4 °F 15.8 °F 80% 30.37 in 10.0 mi SW 3.5 mph - N/A   Clear
3:15 AM 21.2 °F - 14.0 °F 74% 30.38 in 10.0 mi Calm Calm - N/A   Clear
3:35 AM 23.0 °F - 14.0 °F 68% 30.37 in 10.0 mi Calm Calm - N/A   Clear
3:55 AM 23.0 °F - 14.0 °F 68% 30.37 in 10.0 mi Calm Calm - N/A   Clear
4:15 AM 23.0 °F - 14.0 °F 68% 30.36 in 10.0 mi Calm Calm - N/A   Clear
4:35 AM 23.0 °F - 14.0 °F 68% 30.36 in 10.0 mi Calm Calm - N/A   Clear
5:15 AM 21.2 °F - 15.8 °F 80% 30.34 in 10.0 mi Calm Calm - N/A   Clear
5:35 AM 21.2 °F - 14.0 °F 74% 30.33 in 10.0 mi Calm Calm - N/A   Clear
5:55 AM 21.2 °F - 15.8 °F 80% 30.32 in 10.0 mi Calm Calm - N/A   Clear
6:15 AM 21.2 °F - 15.8 °F 80% 30.32 in 10.0 mi Calm Calm - N/A   Clear
6:35 AM 23.0 °F - 15.8 °F 74% 30.31 in 10.0 mi Calm Calm - N/A   Clear
6:55 AM 23.0 °F - 15.8 °F 74% 30.30 in 10.0 mi Calm Calm - N/A   Clear
7:35 AM 23.0 °F - 17.6 °F 80% 30.29 in 10.0 mi Calm Calm - N/A   Clear
7:55 AM 24.8 °F - 17.6 °F 74% 30.29 in 10.0 mi Calm Calm - N/A   Clear
8:15 AM 26.6 °F - 19.4 °F 74% 30.29 in 10.0 mi Calm Calm - N/A   Clear
8:35 AM 30.2 °F 21.3 °F 17.6 °F 60% 30.29 in 10.0 mi SSE 10.4 mph - N/A   Clear
8:55 AM 32.0 °F 22.5 °F 17.6 °F 55% 30.29 in 10.0 mi SSE 12.7 mph - N/A   Clear
9:15 AM 33.8 °F 25.8 °F 15.8 °F 48% 30.29 in 10.0 mi SE 10.4 mph - N/A   Clear
9:35 AM 33.8 °F 25.8 °F 17.6 °F 52% 30.28 in 10.0 mi SE 10.4 mph - N/A   Clear
9:55 AM 35.6 °F 28.6 °F 17.6 °F 48% 30.28 in 10.0 mi SE 9.2 mph - N/A   Clear
10:15 AM 37.4 °F 32.1 °F 15.8 °F 41% 30.27 in 10.0 mi SE 6.9 mph - N/A   Clear
10:35 AM 37.4 °F 30.3 °F 15.8 °F 41% 30.27 in 10.0 mi South 10.4 mph - N/A   Clear
10:55 AM 37.4 °F 32.1 °F 15.8 °F 41% 30.27 in 10.0 mi SSE 6.9 mph - N/A   Clear
11:15 AM 39.2 °F 33.6 °F 14.0 °F 36% 30.26 in 10.0 mi South 8.1 mph 15.0 mph N/A   Clear
11:35 AM 39.2 °F 33.6 °F 15.8 °F 39% 30.26 in 10.0 mi South 8.1 mph - N/A   Clear
11:55 AM 39.2 °F 33.0 °F 15.8 °F 39% 30.24 in 10.0 mi South 9.2 mph - N/A   Clear
12:15 PM 39.2 °F 32.0 °F 17.6 °F 42% 30.23 in 10.0 mi South 11.5 mph - N/A   Clear
12:35 PM 39.2 °F 32.5 °F 17.6 °F 42% 30.22 in 10.0 mi South 10.4 mph - N/A   Clear
12:55 PM 39.2 °F 33.0 °F 19.4 °F 45% 30.20 in 10.0 mi South 9.2 mph - N/A   Clear
1:15 PM 39.2 °F 34.2 °F 21.2 °F 49% 30.19 in 10.0 mi South 6.9 mph - N/A   Clear
1:35 PM 41.0 °F 36.4 °F 21.2 °F 45% 30.17 in 10.0 mi South 6.9 mph - N/A   Clear
1:55 PM 39.2 °F 33.0 °F 21.2 °F 49% 30.16 in 10.0 mi South 9.2 mph - N/A   Clear
2:15 PM 39.2 °F 34.2 °F 23.0 °F 52% 30.15 in 10.0 mi SSE 6.9 mph - N/A   Clear
2:35 PM 41.0 °F 36.4 °F 21.2 °F 45% 30.14 in 10.0 mi South 6.9 mph - N/A   Clear
2:55 PM 39.2 °F 32.5 °F 23.0 °F 52% 30.14 in 10.0 mi South 10.4 mph - N/A   Clear
3:15 PM 39.2 °F 33.0 °F 26.6 °F 61% 30.13 in 10.0 mi SSE 9.2 mph - N/A   Partly Cloudy
3:35 PM 39.2 °F 37.0 °F 28.4 °F 65% 30.13 in 10.0 mi SSE 3.5 mph - N/A   Partly Cloudy
3:55 PM 41.0 °F - 28.4 °F 61% 30.13 in 10.0 mi Calm Calm - N/A   Mostly Cloudy
4:15 PM 41.0 °F - 28.4 °F 61% 30.13 in 10.0 mi Calm Calm - N/A   Overcast
4:35 PM 41.0 °F 38.0 °F 26.6 °F 57% 30.13 in 10.0 mi SSE 4.6 mph - N/A   Overcast
4:55 PM 41.0 °F - 26.6 °F 57% 30.12 in 10.0 mi Calm Calm - N/A   Mostly Cloudy
5:15 PM 41.0 °F - 26.6 °F 57% 30.12 in 10.0 mi Calm Calm - N/A   Mostly Cloudy
5:35 PM 41.0 °F - 28.4 °F 61% 30.12 in 10.0 mi Calm Calm - N/A   Overcast
5:55 PM 39.2 °F 37.0 °F 32.0 °F 75% 30.12 in 10.0 mi SE 3.5 mph - N/A   Overcast
6:15 PM 39.2 °F 34.2 °F 32.0 °F 75% 30.12 in 10.0 mi SE 6.9 mph - N/A   Overcast
6:35 PM 39.2 °F 33.6 °F 32.0 °F 75% 30.12 in 10.0 mi SE 8.1 mph - N/A   Overcast
6:55 PM 39.2 °F 35.0 °F 32.0 °F 75% 30.12 in 10.0 mi SE 5.8 mph - N/A   Overcast
7:15 PM 39.2 °F 35.0 °F 32.0 °F 75% 30.12 in 10.0 mi SE 5.8 mph - N/A   Overcast
7:35 PM 39.2 °F 35.9 °F 32.0 °F 75% 30.13 in 10.0 mi SE 4.6 mph - N/A   Overcast
7:55 PM 39.2 °F 33.0 °F 30.2 °F 70% 30.15 in 10.0 mi SE 9.2 mph - N/A   Overcast
8:15 PM 39.2 °F 35.0 °F 30.2 °F 70% 30.15 in 10.0 mi SE 5.8 mph - N/A   Overcast
8:35 PM 39.2 °F 34.2 °F 30.2 °F 70% 30.16 in 10.0 mi SE 6.9 mph - N/A   Overcast
8:55 PM 39.2 °F 33.6 °F 30.2 °F 70% 30.16 in 10.0 mi SSE 8.1 mph - N/A   Overcast
9:15 PM 39.2 °F 33.6 °F 30.2 °F 70% 30.15 in 10.0 mi SE 8.1 mph - N/A   Overcast
9:35 PM 39.2 °F 32.5 °F 30.2 °F 70% 30.13 in 10.0 mi SE 10.4 mph - N/A   Overcast
9:55 PM 39.2 °F 33.6 °F 30.2 °F 70% 30.13 in 10.0 mi SE 8.1 mph 15.0 mph N/A   Overcast
10:15 PM 39.2 °F 32.5 °F 30.2 °F 70% 30.13 in 10.0 mi SE 10.4 mph - N/A   Mostly Cloudy
10:35 PM 39.2 °F 34.2 °F 30.2 °F 70% 30.14 in 10.0 mi SSE 6.9 mph - N/A   Mostly Cloudy
10:55 PM 39.2 °F 35.0 °F 30.2 °F 70% 30.14 in 10.0 mi South 5.8 mph - N/A   Mostly Cloudy
11:15 PM 39.2 °F 34.2 °F 30.2 °F 70% 30.15 in 10.0 mi South 6.9 mph - N/A   Mostly Cloudy
11:35 PM 39.2 °F 33.6 °F 32.0 °F 75% 30.15 in 10.0 mi South 8.1 mph - N/A   Mostly Cloudy
11:55 PM 39.2 °F - 32.0 °F 75% 30.16 in 10.0 mi Calm Calm - N/A   Overcast